Weather Service Report


033 
FPUS83 KFGF 260831
OPUFGF
PRAIRIE TO PINES WEATHER ROUNDUP
NATIONAL WEATHER SERVICE EASTERN NORTH DAKOTA/GRAND FORKS ND
300 AM CDT FRI AUG 26 2016

 **SATELLITE DATA USED TO AUGMENT SKY COVER AT AUTOMATED STATIONS**
 *****  WEATHER ACROSS EASTERN NORTH DAKOTA  *****
  
CITY           SKY/WX    TMP DP  RH WIND       PRES   REMARKS
GRAND FORKS    FAIR      50  47  89 SW5       30.06F                  
GRAND FORKS AF FAIR      51  48  91 SW5       30.06F                  
GRAND CITY NWS NOT AVBL                                               
BUXTON           N/A     52  52  99 SW6         N/A                   
DEVILS LAKE    FAIR      58  52  80 SW7       30.08F                  
FARGO          FAIR      55  50  83 SW7       30.10F                  
WAHPETON ARPT  FAIR      52  48  87 SW5       30.13S                  
$$

 *****  WEATHER ACROSS CENTRAL AND WESTERN NORTH DAKOTA  *****
  
CITY           SKY/WX    TMP DP  RH WIND       PRES   REMARKS
JAMESTOWN      FAIR      53  48  83 SW7       30.12R                  
BISMARCK       FAIR      47  44  90 CALM      30.14S                  
MINOT          FAIR      56  45  66 SW10      30.05S                  
MINOT AFB      CLOUDY    52  44  74 S5        30.04S                  
GARRISON         N/A     52  46  80 CALM      30.09S                  
WILLISTON      FAIR      52  39  61 CALM      30.08F                  
DICKINSON      FAIR      49  39  68 S5        30.12F                  
HETTINGER      FAIR      49  40  71 CALM      30.17F                  
$$

 *****  OTHER OBSERVATIONS NORTHEAST NORTH DAKOTA  *****
  
CITY           SKY/WX    TMP DP  RH WIND       PRES   REMARKS
WALHALLA       FAIR      48  48 100 S3        30.06S                  
LANGDON        FAIR      45  45 100 S5        30.07F                  
CAVALIER       FAIR      46  46 100 CALM      30.05F                  
GRAFTON        FAIR      48  46  93 CALM      30.07F                  
CANDO          FAIR      46  46 100 CALM      30.09S                  
FORT TOTTEN      N/A     50  44  81 SE2       29.95S                  
ROLLA          FAIR      48  45  87 SW8       30.07F                  
RUGBY          NOT AVBL                                               
 ***** THE ABOVE OBSERVATIONS ARE NON NWS ARE NOT QUALITY
        CONTROLLED AND MAY MIS-REPORT RAIN FOR SNOW...
$$

 *****  OTHER OBSERVATIONS SOUTHEAST NORTH DAKOTA *****
  
CITY           SKY/WX    TMP DP  RH WIND       PRES   REMARKS
COOPERSTOWN    NOT AVBL                                               
VALLEY CITY    FAIR      54  52  94 W9        30.14R                  
OAKES            N/A    N/A N/A N/A MISG        N/A                   
GWINNER        FAIR      52  52 100 S7        30.14S                  
SHEYENNE NWR     N/A     50  49  96 SW5       29.95S                  
BUFFALO          N/A     50  48  91 SW5         N/A                   
WYNDMERE         N/A     54  54 100 SW3         N/A                   
 ***** THE ABOVE OBSERVATIONS ARE NON NWS ARE NOT QUALITY
       CONTROLLED AND MAY MIS-REPORT RAIN FOR SNOW...
$$

  *****  WEATHER ACROSS NORTHERN MINNESOTA  *****     
  
CITY           SKY/WX    TMP DP  RH WIND       PRES   REMARKS
FLAG ISLAND    FAIR      59  50  72 CALM      30.05S                  
WARROAD        FAIR      48  45  87 SW5       30.08S                  
ROSEAU         FAIR      46  43  87 CALM      30.07S                  
HALLOCK        FAIR      50  48  93 SE7       30.05F                  
THF RVR FALLS  FAIR      50  47  89 S6        30.09S                  
HALSTAD          N/A     48  46  93 W5          N/A                   
FOSSTON        FAIR      46  46 100 S7        30.10F                  
BAUDETTE       FAIR      49  47  93 S3        30.07S                  
WASKISH        MOCLDY    50  48  93 CALM      30.09S                  
CROOKSTON      FAIR      48  46  93 S5        30.08F                  
$$
  *****  WEATHER ACROSS CENTRAL AND WEST MINNESOTA  *****     
  
CITY           SKY/WX    TMP DP  RH WIND       PRES   REMARKS
BEMIDJI        FAIR      47  46  96 CALM      30.11F                  
PARK RAPIDS    CLOUDY    53  50  89 CALM      30.12F                  
WADENA         MOCLDY    52  52 100 W5        30.13S                  
DETROIT LAKES  FAIR      55  52  88 CALM      30.13S                  
MOORHEAD       FAIR      52  48  87 S3        30.12S                  
FERGUS FALLS   FAIR      54  54 100 CALM      30.16S                  
ELBOW LAKE     CLOUDY    52  51  98 CALM      30.14F                  
MORRIS MN      FAIR      52  52 100 CALM      30.14F                  
STAPLES        CLOUDY    54  54 100 CALM      30.13S                  
WHEATON        MOCLDY    57  55  94 SW5       30.15F                  
$$
  *****  WEATHER ELSEWHERE ACROSS MINNESOTA  *****     
  
CITY           SKY/WX    TMP DP  RH WIND       PRES   REMARKS
DULUTH         CLOUDY    58  54  86 NW7       30.09S                  
INTRNTL FALLS  FAIR      44  43  96 CALM      30.08S FOG              
ELY            MOCLDY    52  52 100 CALM      30.08S                  
CLOQUET        CLOUDY    55  52  88 W5        30.11R                  
BRAINERD       FAIR      51  51 100 SE3       30.13F                  
HIBBING        CLOUDY    55  53  93 W3        30.10S                  
ALEXANDRIA     FAIR      54  52  93 W6        30.16S                  
SAINT CLOUD    FAIR      54  54 100 CALM      30.13F                  
MINNEAPOLIS    FAIR      58  53  84 CALM      30.14S                  
$$

  *****  WEATHER ACROSS SOUTH DAKOTA  *****
  
CITY           SKY/WX    TMP DP  RH WIND       PRES   REMARKS
SIOUX FALLS    FAIR      53  52  96 CALM      30.17F                  
BROOKINGS      FAIR      50  49  96 CALM      30.17F                  
WATERTOWN      FAIR      53  51  93 CALM      30.17S                  
HURON          FAIR      48  46  93 W3        30.17F                  
SISSETON         N/A     57  52  83 W5        30.13S                  
ABERDEEN       FAIR      47  45  93 CALM      30.16F                  
MITCHELL       FAIR      51  49  92 W3        30.19R                  
PIERRE         FAIR      48  45  89 CALM      30.16F                  
MOBRIDGE       FAIR      52  45  77 SE3       30.14F                  
RAPID CITY     LGT RAIN  53  46  77 SE7       30.20F                  
$$

  *****  SOME WEATHER IN NEARBY STATES *****
  
CITY           SKY/WX    TMP DP  RH WIND       PRES   REMARKS
GLASGOW MT     FAIR      56  45  66 CALM      30.08S                  
GREAT FALLS MT CLOUDY    51  44  77 SW6       30.20S                  
CHEYENNE WY    FAIR      52  46  80 S7        30.21F                  
SCOTTSBLUFF NE FAIR      56  48  74 E9        30.17F                  
OMAHA NE       FAIR      61  57  87 N8        30.14F                  
DES MOINES IA  MOCLDY    64  61  90 NW3       30.13S                  
DAVENPORT IA   FAIR      61  60  97 CALM      30.12S                  
CHICAGO IL     FAIR      68  62  81 NW7       30.09F                  
EAU CLAIRE WI  FAIR      55  54  96 CALM      30.12R                  
LA CROSSE WI   FAIR      62  60  93 SE3       30.13R                  
$$

  *****  SOME NATIONAL WEATHER *****
  
CITY           SKY/WX    TMP DP  RH WIND       PRES   REMARKS
LA GUARDIA NY  FAIR      79  70  74 SW9       29.98R                  
RALEIGH NC     FAIR      74  70  87 SW6       30.09S                  
ATLANTA GA     FAIR      78  71  79 CALM      30.12F                  
NEW ORLEANS LA FAIR      82  78  88 NE3       30.01F HX  91           
OKLAHOMA CITY  MOCLDY    72  68  87 N9        30.10R                  
ALBUQUERQUE NM MOCLDY    67  47  48 N12       30.20F                  
SALT LAKE CITY FAIR      67  35  30 S5        30.02F                  
LOS ANGELES CA CLOUDY    66  59  78 NW7       29.92F                  
BOISE ID       FAIR      61  32  33 SE6       29.97S                  
SEATTLE WA     FAIR      73  51  46 E5        29.97S                  
$$

*** WEATHER ACROSS MANITOBA...SASKATCHEWAN AND ONTARIO ***
                ***ONTARIO***
  
CITY           SKY/WX    TMP DP  RH WIND       PRES   REMARKS
GERALDTON      MOCLDY    52  50  93 NW6       29.98S                  
THUNDER BAY    MOCLDY    55  54  94 W8        30.02R                  
SIOUX LOOKOUT  CLEAR     45  45 100 SW3       30.04R                  
TORONTO        MOCLDY    70  66  88 NW6       29.98R                  
BIG TROUT LK   CLEAR     55  52  88 W8        29.85S                  
PICKLE LAKE    NOT AVBL                                               
DRYDEN         CLEAR     50  50 100 SW9       30.06R                  
KENORA         CLEAR     54  50  87 SW6       30.06R                  
$$      
                *** MANITOBA***
  
CITY           SKY/WX    TMP DP  RH WIND       PRES   REMARKS
BRANDON        PTCLDY    46  43  87 CALM      30.03F                  
DAUPHIN        CLEAR     57  50  77 SW8       29.98S                  
ISLAND LAKE    CLEAR     59  54  82 SW6       29.89                   
PILOT MOUND      N/A     48  45  87 SE5         N/A                   
THE PAS        PTCLDY    55  50  82 S5        29.89F                  
THOMPSON       MOCLDY    55  50  82 N5        29.86R                  
WINNIPEG       CLEAR     48  46  93 W3        30.04S                  
LYNN LAKE      CLOUDY    54  48  82 MISG      29.93S                  
CHURCHILL      CLOUDY    46  46 100 N16G22    29.86R                  
GILLAM         CLOUDY    52  43  71 E6        29.83R                  
$$
                ***SASKATCHEWAN***
  
CITY           SKY/WX    TMP DP  RH WIND       PRES   REMARKS
ESTEVAN        MOCLDY    55  50  82 SW5       30.04F                  
KINDERSLEY     CLOUDY    55  54  94 NW7       30.03S                  
LLOYDMINSTER   PTCLDY    50  50 100 W7        30.05S                  
PRINCE ALBERT  LGT RAIN  57  54  88 NW5       29.93F                  
REGINA         CLOUDY    50  48  93 SW8       30.02F                  
YORKTON        CLEAR     52  48  87 S8        29.98F   C1F1C2F2C3F3C4F4C5F5C6F6C7F7C8F8C9F9CaFaCbFbCcFcCdFdCe!

Return to Home page


Western Regional Climate Center, wrcc@dri.edu